Weather History for KMTJ - November, 2012

Change the Weather History Date:

Friday, November 2, 2012

  Actual Average Record
Temperature  
Mean Temperature 50 °F 43 °F  
Max Temperature 62 °F 57 °F 73 °F (2008)
Min Temperature 37 °F 29 °F 17 °F (2004)
Degree Days  
Heating Degree Days 15 22  
Month to date heating degree days 30 43  
Since 1 July heating degree days 495 634  
Cooling Degree Days 0 0  
Month to date cooling degree days 0 0  
Year to date cooling degree days 906 643  
Moisture  
Dew Point 19 °F    
Average Humidity 31    
Maximum Humidity 44    
Minimum Humidity 17    
Precipitation  
Precipitation 0.00 in 0.03 in 0.16 in (1998)
Month to date precipitation 0.00 0.06  
Year to date precipitation 5.33 9.90  
Sea Level Pressure  
Sea Level Pressure 30.01 in    
Wind  
Wind Speed 6 mph (SE)    
Max Wind Speed 14 mph    
Max Gust Speed 15 mph    
Visibility 10 miles    
Events      
T = Trace of Precipitation, MM = Missing Value Source: NWS Daily Summary

Daily Weather History Graph

Daily Weather History Graph

Search for Another Location

Airport or City:

Trip Planner

Search our weather history database for the weather conditions in past years. The results will help you decide how hot, cold, wet, or windy it might be!

Date:

Astronomy

Nov. 02, 2012 Rise Set
Actual Time 7:39 AM MDT 6:09 PM MDT
Civil Twilight 7:12 AM MDT 6:37 PM MDT
Nautical Twilight 6:40 AM MDT 7:08 PM MDT
Astronomical Twilight 6:09 AM MDT 7:39 PM MDT
Moon 9:01 PM MDT 11:01 AM MDT
Length of Visible Light 11h 25m
Length of Day
10h 30m
Waning Gibbous, 87% of the Moon is Illuminated
Nov 2
Waning Gibbous
Nov 6
Last Quarter
Nov 13
New
Nov 20
First Quarter
Nov 28
Full

Hourly Weather History & Observations

Time (MDT) Temp. Windchill Dew Point Humidity Pressure Visibility Wind Dir Wind Speed Gust Speed Precip Events Conditions
12:53 AM 46.0 °F 41.9 °F 19.0 °F 34% 29.94 in 10.0 mi SE 8.1 mph - N/A   Clear
1:53 AM 45.0 °F 43.5 °F 19.0 °F 36% 29.95 in 10.0 mi WNW 3.5 mph - N/A   Clear
2:53 AM 43.0 °F 38.8 °F 21.0 °F 42% 29.96 in 10.0 mi SSE 6.9 mph - N/A   Clear
3:53 AM 43.0 °F 38.8 °F 18.0 °F 37% 29.94 in 10.0 mi SE 6.9 mph - N/A   Clear
4:53 AM 45.0 °F 39.7 °F 18.0 °F 34% 29.95 in 10.0 mi ESE 10.4 mph - N/A   Clear
5:53 AM 42.1 °F 38.4 °F 19.0 °F 40% 29.99 in 10.0 mi SSE 5.8 mph - N/A   Clear
6:53 AM 42.1 °F 37.7 °F 19.9 °F 41% 30.00 in 10.0 mi SSE 6.9 mph - N/A   Clear
7:53 AM 41.0 °F - 19.0 °F 41% 30.03 in 10.0 mi Calm Calm - N/A   Clear
8:53 AM 44.1 °F - 19.9 °F 38% 30.05 in 10.0 mi Calm Calm - N/A   Clear
9:53 AM 51.1 °F - 19.0 °F 28% 30.04 in 10.0 mi Calm Calm - N/A   Clear
10:53 AM 52.0 °F - 21.0 °F 30% 30.03 in 10.0 mi NW 4.6 mph - N/A   Clear
11:53 AM 55.9 °F - 19.0 °F 24% 30.02 in 10.0 mi Calm Calm - N/A   Clear
12:53 PM 59.0 °F - 21.0 °F 23% 30.00 in 10.0 mi NNW 5.8 mph - N/A   Clear
1:53 PM 62.1 °F - 17.1 °F 18% 29.96 in 10.0 mi NNW 5.8 mph - N/A   Clear
2:53 PM 62.1 °F - 17.1 °F 18% 29.95 in 10.0 mi NNW 3.5 mph - N/A   Clear
3:53 PM 61.0 °F - 18.0 °F 19% 29.96 in 10.0 mi NW 6.9 mph - N/A   Clear
4:53 PM 61.0 °F - 17.1 °F 18% 29.96 in 10.0 mi NW 10.4 mph - N/A   Clear
5:53 PM 55.9 °F - 19.0 °F 24% 30.00 in 10.0 mi NNW 3.5 mph - N/A   Clear
6:53 PM 48.9 °F - 19.0 °F 31% 30.04 in 10.0 mi SSE 6.9 mph - N/A   Clear
7:53 PM 44.1 °F 39.5 °F 19.9 °F 38% 30.07 in 10.0 mi SE 8.1 mph - N/A   Clear
8:53 PM 43.0 °F 37.2 °F 18.0 °F 37% 30.07 in 10.0 mi SE 10.4 mph - N/A   Clear
9:53 PM 43.0 °F 36.8 °F 17.1 °F 35% 30.06 in 10.0 mi SE 11.5 mph - N/A   Clear
10:53 PM 39.9 °F 35.8 °F 18.0 °F 41% 30.08 in 10.0 mi SSE 5.8 mph - N/A   Clear
11:53 PM 37.9 °F 32.1 °F 17.1 °F 43% 30.09 in 10.0 mi SSE 8.1 mph - N/A   Clear